PLATFORM,ARGOS_ID,DATE (YYYY/MM/DD HH:MI:SS),LATITUDE (degree_north),LONGITUDE (degree_east),TEMP LEVEL0 (degree_Celsius),EWCT LEVEL0 (meter/second),NSCT LEVEL0 (meter/second),NSCT LEVEL1 (meter/second),EWCT LEVEL1 (meter/second),QC,SC40_GNRL_BattVolt,SC40_GNRL_Submergence
61288,24795,2005/06/01 21:00:00,42.9080,5.8210,19.18,,,,,0011119999,10.41,104
61288,24795,2005/06/01 22:00:00,42.9050,5.8070,19.219,-0.432909,-0.126193,-0.092662,-0.316736,0011110000,10.24,63
61288,24795,2005/06/01 23:00:00,42.9110,5.8060,19.297,-0.0309221,0.252392,0.185325,-0.022623,0011110000,10.41,23
61288,24795,2005/06/02 00:00:00,42.9140,5.7990,19.57,-0.216455,0.126205,0.092662,-0.158353,0011110000,10.41,0
61288,24795,2005/06/02 01:00:00,42.9160,5.7930,19.57,-0.185532,0.0841403,0.061775,-0.135725,0011110000,10.41,0
61288,24795,2005/06/02 02:00:00,42.9190,5.7870,20,-0.185532,0.126216,0.092662,-0.13572,0011110000,10.41,0
61288,24795,2005/06/02 03:00:00,42.9210,5.7830,20.234,-0.123688,0.0841472,0.061775,-0.090476,0011110000,10.41,0
61288,24795,2005/06/02 04:00:00,42.9230,5.7790,20.039,-0.123688,0.08415,0.061775,-0.090473,0011110000,10.41,0
61288,24795,2005/06/02 05:00:00,42.9250,5.7760,20.234,-0.0927662,0.0841527,0.061775,-0.067853,0011110000,10.41,0
61288,24795,2005/06/02 06:00:00,42.9260,5.7720,20.352,-0.123688,0.0420774,0.030887,-0.090468,0011110000,10.41,0
61288,24795,2005/06/02 07:00:00,42.9280,5.7690,20.547,-0.0927662,0.0841568,0.061775,-0.067849,0011110000,10.41,0
61288,24795,2005/06/02 08:00:00,42.9290,5.7660,20.859,-0.0927662,0.0420795,0.030887,-0.067848,0011110000,10.29,0
61288,24795,2005/06/02 09:00:00,42.9300,5.7610,21.445,-0.15461,0.0420801,0.030887,-0.113078,0011110000,10.35,0
61288,24795,2005/06/02 10:00:00,42.9310,5.7560,21.914,-0.15461,0.0420808,0.030887,-0.113076,0011110000,10.41,0
61288,24795,2005/06/02 11:00:00,42.9310,5.7510,23.203,-0.15461,0,0,-0.113075,0011110000,10.47,0
61288,24795,2005/06/02 12:00:00,42.9320,5.7460,21.836,-0.15461,0.0420815,0.030887,-0.113074,0011110000,10.47,0
61288,24795,2005/06/02 13:00:00,42.9330,5.7400,21.719,-0.185532,0.0420822,0.030887,-0.135687,0011110000,10.47,0
61288,24795,2005/06/02 14:00:00,42.9340,5.7340,22.148,-0.185532,0.0420829,0.030887,-0.135685,0011110000,10.47,0
61288,24795,2005/06/02 15:00:00,42.9360,5.7270,22.539,-0.216455,0.0841679,0.061775,-0.158295,0011110000,10.29,0
61288,24795,2005/06/02 16:01:00,42.9380,5.7200,22.93,-0.212906,0.0827908,0.060762,-0.155695,0011110000,10.29,0
61288,24795,2005/06/02 17:00:00,42.9400,5.7130,22.266,-0.220123,0.0856,0.062822,-0.160967,0011110000,10.29,0
61288,24795,2005/06/02 18:00:00,42.9430,5.7060,21.992,-0.216455,0.126265,0.092662,-0.158278,0011110000,10.47,0
61288,24795,2005/06/02 19:00:00,42.9470,5.7010,21.641,-0.15461,0.168363,0.12355,-0.113049,0011110000,10.47,0
61288,24795,2005/06/02 20:00:00,42.9510,5.6970,21.562,-0.123688,0.168374,0.12355,-0.090434,0011110000,10.41,0
61288,24795,2005/06/02 21:00:00,42.9540,5.6930,21.367,-0.123688,0.126288,0.092662,-0.090429,0011110000,10.35,0
61288,24795,2005/06/02 22:00:00,42.9560,5.6890,21.328,-0.123688,0.0841954,0.061775,-0.090425,0011110000,10.41,0
61288,24795,2005/06/03 00:01:00,42.9610,5.6790,21.172,-0.153333,0.10438,0.076581,-0.112091,0011110000,10.29,0
61288,24795,2005/06/03 01:00:00,42.9640,5.6740,21.172,-0.157231,0.128449,0.094233,-0.114933,0011110000,10.41,0
61288,24795,2005/06/03 02:00:00,42.9660,5.6680,21.133,-0.185532,0.0842092,0.061775,-0.135615,0011110000,10.41,0
61288,24795,2005/06/03 03:00:00,42.9690,5.6630,21.133,-0.15461,0.126319,0.092662,-0.113008,0011110000,10.41,0
61288,24795,2005/06/03 04:00:00,42.9700,5.6570,20.938,-0.185532,0.0421077,0.030887,-0.135605,0011110000,10.41,0
61288,24795,2005/06/03 05:00:00,42.9720,5.6510,21.133,-0.185532,0.0842175,0.061775,-0.135602,0011110000,10.29,0
61288,24795,2005/06/03 06:00:00,42.9760,5.6450,21.133,-0.185532,0.168443,0.12355,-0.135595,0011110000,10.29,0
61288,24795,2005/06/03 07:00:00,42.9780,5.6390,21.172,-0.185532,0.0842257,0.061775,-0.135589,0011110000,10.41,0
61288,24795,2005/06/03 08:01:00,42.9810,5.6330,21.328,-0.182491,0.124273,0.091143,-0.133361,0011110000,10.29,0
61288,24795,2005/06/03 09:00:00,42.9840,5.6280,21.484,-0.157231,0.128492,0.094233,-0.114895,0011110000,10.41,0
61288,24795,2005/06/03 10:00:00,42.9860,5.6220,21.484,-0.185532,0.0842368,0.061775,-0.135571,0011110000,10.41,0
61288,24795,2005/06/03 11:00:00,42.9890,5.6160,21.523,-0.185532,0.12636,0.092662,-0.135566,0011110000,10.41,0
61288,24795,2005/06/03 12:00:00,42.9920,5.6100,21.406,-0.185532,0.126367,0.092662,-0.135559,0011110000,10.41,0
61288,24795,2005/06/03 13:00:00,42.9950,5.6030,21.445,-0.216455,0.126373,0.092662,-0.158144,0011110000,10.35,0
61288,24795,2005/06/03 14:00:00,42.9980,5.5970,21.172,-0.185532,0.126379,0.092662,-0.135546,0011110000,10.41,0
61288,24795,2005/06/03 15:01:00,43.0010,5.5910,20.781,-0.182491,0.124313,0.091143,-0.133317,0011110000,10.29,0
61288,24795,2005/06/03 16:00:00,43.0040,5.5860,20.938,-0.157231,0.128534,0.094233,-0.114858,0011110000,10.41,0
61288,24795,2005/06/03 17:00:00,43.0080,5.5800,20.977,-0.185532,0.168532,0.12355,-0.135525,0011110000,10.29,0
61288,24795,2005/06/03 18:00:00,43.0110,5.5750,20.859,-0.15461,0.126406,0.092662,-0.112931,0011110000,10.41,0
61288,24795,2005/06/03 20:00:00,43.0160,5.5630,20.938,-0.185532,0.105345,0.077219,-0.135508,0011110000,10.29,0
61288,24795,2005/06/03 21:00:00,43.0190,5.5580,20.859,-0.15461,0.126423,0.092662,-0.112916,0011110000,10.29,0
61288,24795,2005/06/03 22:00:00,43.0210,5.5540,20.938,-0.123688,0.0842851,0.061775,-0.090329,0011110000,10.41,0
61288,24795,2005/06/03 23:00:00,43.0220,5.5490,20.859,-0.15461,0.0421436,0.030887,-0.112909,0011110000,10.41,0
61288,24795,2005/06/04 00:01:00,43.0230,5.5440,20.859,-0.152076,0.0414534,0.030381,-0.111056,0011110000,10.29,0
61288,24795,2005/06/04 01:00:00,43.0250,5.5390,20.781,-0.157231,0.0857193,0.062822,-0.114818,0011110000,10.41,0
61288,24795,2005/06/04 02:00:00,43.0280,5.5340,20.664,-0.15461,0.126441,0.092662,-0.1129,0011110000,10.29,0
61288,24795,2005/06/04 03:00:00,43.0300,5.5300,20.664,-0.123688,0.0842976,0.061775,-0.090316,0011110000,10.41,0
61288,24795,2005/06/04 04:00:00,43.0330,5.5250,20.664,-0.15461,0.126452,0.092662,-0.11289,0011110000,10.41,0
61288,24795,2005/06/04 05:00:00,43.0350,5.5210,20.586,-0.123688,0.0843045,0.061775,-0.090309,0011110000,10.29,0
61288,24795,2005/06/04 06:00:00,43.0370,5.5180,20.469,-0.0927662,0.0843073,0.061775,-0.067729,0011110000,10.41,0
61288,24795,2005/06/04 07:00:00,43.0380,5.5150,20.469,-0.0927662,0.0421547,0.030887,-0.067728,0011110000,10.41,0
61288,24795,2005/06/04 08:00:00,43.0390,5.5110,20.43,-0.123688,0.0421554,0.030887,-0.090302,0011110000,10.29,0
61288,24795,2005/06/04 09:00:00,43.0410,5.5070,20.469,-0.123688,0.0843128,0.061775,-0.0903,0011110000,10.41,0
61288,24795,2005/06/04 10:00:00,43.0400,5.5020,20.586,-0.15461,-0.0421567,-0.030887,-0.112874,0011110000,10.29,0
61288,24795,2005/06/04 11:00:00,43.0400,5.4980,20.43,-0.123688,0,0,-0.0903,0011110000,10.35,3
61288,24795,2005/06/04 12:00:00,43.0400,5.4920,20.547,-0.185532,0,0,-0.13545,0011110000,10.41,23
61288,24795,2005/06/04 13:00:00,43.0400,5.4870,20.43,-0.15461,0,0,-0.112875,0011110000,10.41,57
61288,24795,2005/06/04 14:01:00,43.0410,5.4810,20.547,-0.182491,0.0414656,0.030381,-0.133228,0011110000,10.29,98
61288,24795,2005/06/04 15:00:00,43.0420,5.4760,20.43,-0.157231,0.042872,0.031411,-0.114785,0011110000,10.29,138
61288,24795,2005/06/04 17:00:00,43.0450,5.4660,20.742,-0.15461,0.0632382,0.046331,-0.112868,0011110000,10.29,218
61288,24795,2005/06/04 19:00:00,43.0500,5.4590,20.703,-0.108227,0.105404,0.077219,-0.079003,0011110000,10.29,255
61288,24795,2005/06/04 20:01:00,43.0520,5.4570,20.664,-0.0608303,0.0829456,0.060762,-0.044402,0011110000,10.29,255
61288,24795,2005/06/04 21:00:00,43.0540,5.4550,20.586,-0.0628924,0.0857601,0.062822,-0.045905,0011110000,10.41,255
61288,24795,2005/06/05 00:00:00,43.0550,5.4500,20.078,-0.0515368,0.0140555,0.010296,-0.037616,0011110000,10.24,255
61288,24795,2005/06/05 01:00:00,43.0550,5.4480,19.844,-0.0618442,0,0,-0.045139,0011110000,10.29,255
61288,24795,2005/06/05 02:00:00,43.0550,5.4460,19.648,-0.0618442,0,0,-0.045139,0011110000,10.41,255
61288,24795,2005/06/05 03:00:00,43.0560,5.4440,19.453,-0.0618442,0.0421671,0.030887,-0.045139,0011110000,10.41,255
61288,24795,2005/06/05 04:00:00,43.0560,5.4410,19.414,-0.0927662,0,0,-0.067707,0011110000,10.41,255
61288,24795,2005/06/05 05:00:00,43.0560,5.4390,19.258,-0.0618442,0,0,-0.045138,0011110000,10.41,255
61288,24795,2005/06/05 06:00:00,43.0560,5.4360,18.828,-0.0927662,0,0,-0.067707,0011110000,10.29,255
61288,24795,2005/06/05 07:01:00,43.0570,5.4340,18.438,-0.0608303,0.0414765,0.030381,-0.044398,0011110000,10.29,255
61288,24795,2005/06/05 08:00:00,43.0580,5.4320,18.242,-0.0628924,0.0428832,0.031411,-0.045902,0011110000,10.41,255
61288,24795,2005/06/05 09:00:00,43.0580,5.4290,18.125,-0.0927662,0,0,-0.067705,0011110000,10.41,255
61288,24795,2005/06/05 10:00:00,43.0590,5.4270,18.281,-0.0618442,0.0421692,0.030887,-0.045136,0011110000,10.41,255
61288,24795,2005/06/05 11:00:00,43.0600,5.4250,18.359,-0.0618442,0.0421699,0.030887,-0.045136,0011110000,10.41,255
61288,24795,2005/06/05 12:00:00,43.0620,5.4230,18.555,-0.0618442,0.0843419,0.061775,-0.045134,0011110000,10.29,255
61288,24795,2005/06/05 13:00:00,43.0630,5.4210,18.594,-0.0618442,0.042172,0.030887,-0.045133,0011110000,10.29,255
61288,24795,2005/06/05 14:00:00,43.0650,5.4200,18.594,-0.0309221,0.084346,0.061775,-0.022566,0011110000,10.41,255
61288,24795,2005/06/05 15:00:00,43.0660,5.4200,18.672,0,0.0421741,0.030887,0,0011110000,10.41,255
61288,24795,2005/06/05 16:00:00,43.0670,5.4200,18.633,0,0.0421747,0.030887,0,0011110000,10.41,255
61288,24795,2005/06/05 17:00:00,43.0680,5.4210,18.594,0.0309221,0.0421754,0.030887,0.022565,0011110000,10.41,255
61288,24795,2005/06/05 18:00:00,43.0690,5.4240,18.555,0.0927662,0.0421761,0.030887,0.067693,0011110000,10.29,255
61288,24795,2005/06/05 19:00:00,43.0700,5.4270,18.438,0.0927662,0.0421768,0.030887,0.067692,0011110000,10.41,255
61288,24795,2005/06/05 20:00:00,43.0700,5.4310,18.281,0.123688,0,0,0.090256,0011110000,10.41,255
61288,24795,2005/06/06 00:00:00,43.0670,5.4450,18.164,0.108227,-0.0316321,-0.023166,0.078976,0011110000,10.41,255
61288,24795,2005/06/06 01:00:00,43.0660,5.4470,18.086,0.0618442,-0.0421747,-0.030887,0.04513,0011110000,10.41,255
61288,24795,2005/06/06 02:00:00,43.0650,5.4490,17.891,0.0618442,-0.0421741,-0.030887,0.045131,0011110000,10.24,255
61288,24795,2005/06/06 03:00:00,43.0640,5.4490,17.773,0,-0.0421734,-0.030887,0,0011110000,10.41,255
61288,24795,2005/06/06 04:00:00,43.0620,5.4490,17.5,0,-0.0843446,-0.061775,0,0011110000,10.41,255
61288,24795,2005/06/06 05:00:00,43.0610,5.4480,17.227,-0.0309221,-0.0421713,-0.030887,-0.022567,0011110000,10.41,255
61288,24795,2005/06/06 06:01:00,43.0610,5.4470,17.148,-0.0304152,0,0,-0.022197,0011110000,10.24,255
61288,24795,2005/06/06 07:01:00,43.0610,5.4450,17.148,-0.0618442,0,0,-0.045134,0011110000,10.29,255
61288,24795,2005/06/06 08:00:00,43.0610,5.4440,16.953,-0.0314462,0,0,-0.02295,0011110000,10.41,255
61288,24795,2005/06/06 09:00:00,43.0620,5.4440,16.836,0,0.0421713,0.030887,0,0011110000,10.41,255
61288,24795,2005/06/06 10:01:00,43.0620,5.4450,16.992,0.0304152,-1.01784e-12,0,0.022197,0011110000,10.24,255
61288,24795,2005/06/06 11:00:00,43.0620,5.4470,16.992,0.0628924,-1.05234e-12,0,0.045899,0011110000,10.41,255
61288,24795,2005/06/06 12:00:00,43.0630,5.4480,17.188,0.0309221,0.042172,0.030887,0.022567,0011110000,10.41,255
61288,24795,2005/06/06 13:00:00,43.0640,5.4500,17.148,0.0618442,0.0421727,0.030887,0.045133,0011110000,10.41,255
61288,24795,2005/06/06 14:00:00,43.0650,5.4520,17.188,0.0618442,0.0421734,0.030887,0.045132,0011110000,10.24,255
61288,24795,2005/06/06 15:00:00,43.0660,5.4550,17.109,0.0927662,0.0421741,0.030887,0.067697,0011110000,10.41,255
61288,24795,2005/06/06 16:01:00,43.0670,5.4580,16.992,0.0912455,0.0414834,0.030381,0.066586,0011110000,10.24,255
61288,24795,2005/06/06 17:00:00,43.0670,5.4610,16.758,0.0943386,0,0,0.068842,0011110000,10.29,255
61288,24795,2005/06/06 19:00:00,43.0650,5.4680,16.484,0.108227,-0.0421744,-0.030887,0.078979,0011110000,10.41,255
61288,24795,2005/06/06 20:00:00,43.0650,5.4710,16.25,0.0927662,0,0,0.067697,0011110000,10.41,255
61288,24795,2005/06/06 21:00:00,43.0630,5.4740,16.094,0.0927662,-0.084346,-0.061775,0.067698,0011110000,10.29,255
61288,24795,2005/06/07 00:00:00,43.0580,5.4810,15.898,0.0721515,-0.0702843,-0.051479,0.052657,0011110000,10.35,255
61288,24795,2005/06/07 02:01:00,43.0530,5.4800,15.547,-0.0153333,-0.104547,-0.076581,-0.011191,0011110000,10.24,255
61288,24795,2005/06/07 03:00:00,43.0520,5.4790,15.508,-0.0314462,-0.0428797,-0.031411,-0.022953,0011110000,10.35,255
61288,24795,2005/06/07 04:00:00,43.0510,5.4790,15.508,0,-0.0421644,-0.030887,0,0011110000,10.35,255
61288,24795,2005/06/07 05:00:00,43.0500,5.4780,15.547,-0.0309221,-0.0421637,-0.030887,-0.022571,0011110000,10.35,255
61288,24795,2005/06/07 06:00:00,43.0500,5.4780,15.625,-2.74643e-14,-1.0348e-12,0,0,0011110000,10.35,255
61288,24795,2005/06/07 07:00:00,43.0480,5.4800,15.586,0.0618442,-0.0843253,-0.061775,0.045143,0011110000,10.35,255
61288,24795,2005/06/07 08:01:00,43.0460,5.4800,15.625,0,-0.0829401,-0.060762,0,0011110000,10.24,255
61288,24795,2005/06/07 09:00:00,43.0440,5.4810,15.664,0.0314462,-0.0857489,-0.062822,0.022956,0011110000,10.41,255
61288,24795,2005/06/07 10:00:00,43.0420,5.4830,15.742,0.0618442,-0.0843169,-0.061775,0.045148,0011110000,10.41,255
61288,24795,2005/06/07 11:00:00,43.0390,5.4840,15.781,0.0309221,-0.12647,-0.092662,0.022575,0011110000,10.29,255
61288,24795,2005/06/07 12:00:00,43.0360,5.4860,16.055,0.0618442,-0.126464,-0.092662,0.045152,0011110000,10.41,255
61288,24795,2005/06/07 13:00:00,43.0310,5.4880,16.094,0.0618442,-0.210759,-0.154437,0.045155,0011110000,10.41,255
61288,24795,2005/06/07 14:00:00,43.0280,5.4860,16.133,-0.0618442,-0.126447,-0.092662,-0.045158,0011110000,10.24,255
61288,24795,2005/06/07 15:00:00,43.0220,5.4880,16.055,0.0618442,-0.252876,-0.185325,0.045161,0011110000,10.41,255
61288,24795,2005/06/07 16:00:00,43.0170,5.4870,15.938,-0.0309221,-0.210711,-0.154437,-0.022583,0011110000,10.35,255
61288,24795,2005/06/07 17:00:00,43.0120,5.4860,15.625,-0.0309221,-0.210694,-0.154437,-0.022584,0011110000,10.35,255
61288,24795,2005/06/07 18:01:00,43.0070,5.4850,15.547,-0.0304152,-0.207223,-0.151906,-0.022216,0011110000,10.35,255
61288,24795,2005/06/07 21:01:00,42.9920,5.4720,15.703,-0.133996,-0.210642,-0.154437,-0.097889,0011110000,10.24,255
61288,24795,2005/06/07 23:00:00,42.9840,5.4580,15.703,-0.218274,-0.169898,-0.124588,-0.159488,0011110000,10.35,255
61288,24795,2005/06/08 00:00:00,42.9800,5.4500,15.742,-0.247377,-0.168465,-0.12355,-0.18077,0011110000,10.35,255
61288,24795,2005/06/08 01:00:00,42.9770,5.4410,15.742,-0.278299,-0.126342,-0.092662,-0.203378,0011110000,10.35,255
61288,24795,2005/06/08 03:00:00,42.9740,5.4210,15.742,-0.309221,-0.0631678,-0.046331,-0.225987,0011110000,10.41,255
61288,24795,2005/06/08 04:00:00,42.9740,5.4100,15.742,-0.340143,-1.0348e-12,0,-0.248592,0011110000,10.24,255
61288,24795,2005/06/08 05:01:00,42.9740,5.3980,15.703,-0.364982,-1.01784e-12,0,-0.266745,0011110000,10.24,255
61288,24795,2005/06/08 06:00:00,42.9740,5.3860,15.586,-0.377354,-1.05234e-12,0,-0.275787,0011110000,10.35,255
61288,24795,2005/06/08 07:00:00,42.9760,5.3740,15.391,-0.371065,0.084223,0.061775,-0.271186,0011110000,10.35,255
61288,24795,2005/06/08 08:00:00,42.9770,5.3630,15.352,-0.340143,0.0421125,0.030887,-0.248581,0011110000,10.35,255
61288,24795,2005/06/08 09:00:00,42.9790,5.3530,15.469,-0.309221,0.0842271,0.061775,-0.225978,0011110000,10.24,255
61288,24795,2005/06/08 10:00:00,42.9830,5.3440,15.586,-0.278299,0.168463,0.12355,-0.20337,0011110000,10.35,255
61288,24795,2005/06/08 11:00:00,42.9870,5.3330,15.508,-0.340143,0.168474,0.12355,-0.248547,0011110000,10.29,255
61288,24795,2005/06/08 12:00:00,42.9890,5.3260,15.508,-0.216455,0.0842409,0.061775,-0.158159,0011110000,10.41,255
61288,24795,2005/06/08 13:00:00,42.9890,5.3180,16.016,-0.247377,-7.76102e-13,0,-0.18075,0011110000,10.41,255
61288,24795,2005/06/08 14:00:00,42.9890,5.3110,16.211,-0.216455,-7.76102e-13,0,-0.158156,0011110000,10.24,255
61288,24795,2005/06/08 15:00:00,42.9890,5.3020,16.211,-0.278299,-7.76102e-13,0,-0.203343,0011110000,10.29,255
61288,24795,2005/06/08 17:00:00,42.9880,5.2810,16.055,-0.324682,-0.0210604,-0.015444,-0.237236,0011110000,10.41,243
61288,24795,2005/06/08 18:01:00,42.9870,5.2670,16.68,-0.425812,-0.0414296,-0.030381,-0.311134,0011110000,10.29,214
61288,24795,2005/06/08 19:00:00,42.9880,5.2540,16.641,-0.4088,0.042834,0.031411,-0.298704,0011110000,10.41,191
61288,24795,2005/06/08 20:00:00,42.9900,5.2410,16.758,-0.405365,0.0637121,0.061775,-0.293718,0011110000,10.41,150
61288,24795,2005/06/08 21:00:00,42.9930,5.2300,17.07,-0.340143,0.126369,0.092662,-0.248521,0011110000,10.24,109
61288,24795,2005/06/08 22:00:00,42.9960,5.2210,17.109,-0.278299,0.126375,0.092662,-0.203325,0011110000,10.41,75
61288,24795,2005/06/09 00:00:00,43.0010,5.2040,17.227,-0.262838,0.105319,0.077219,-0.192017,0011110000,10.41,125
61288,24795,2005/06/09 01:00:00,43.0040,5.1970,17.109,-0.216455,0.126391,0.092662,-0.158121,0011110000,10.41,165
61288,24795,2005/06/09 02:00:00,43.0060,5.1910,17.188,-0.185532,0.0842644,0.061775,-0.135527,0011110000,10.41,206
61288,24795,2005/06/09 03:00:00,43.0090,5.1870,17.188,-0.123688,0.126402,0.092662,-0.090348,0011110000,10.41,244
61288,24795,2005/06/09 04:01:00,43.0110,5.1840,17.109,-0.0912455,0.0828898,0.060762,-0.066647,0011110000,10.29,255
61288,24795,2005/06/09 05:00:00,43.0130,5.1810,17.031,-0.0943386,0.0857024,0.062822,-0.068904,0011110000,10.41,255
61288,24795,2005/06/09 06:00:00,43.0160,5.1790,17.148,-0.0618442,0.126416,0.092662,-0.045169,0011110000,10.29,255
61288,24795,2005/06/09 07:00:00,43.0160,5.1780,17.148,-0.0309221,0,0,-0.022584,0011110000,10.41,255
61288,24795,2005/06/09 08:00:00,43.0130,5.1760,17.148,-0.0618442,-0.126416,-0.092662,-0.045169,0011110000,10.29,255
61288,24795,2005/06/09 09:00:00,43.0100,5.1730,17.344,-0.0927662,-0.12641,-0.092662,-0.067756,0011110000,10.41,255
61288,24795,2005/06/09 10:00:00,43.0060,5.1680,17.422,-0.15461,-0.168537,-0.12355,-0.112934,0011110000,10.29,255
61288,24795,2005/06/09 11:00:00,43.0030,5.1610,17.578,-0.216455,-0.126396,-0.092662,-0.158116,0011110000,10.41,255
61288,24795,2005/06/09 12:00:00,43.0010,5.1520,17.695,-0.278299,-0.0842603,-0.061775,-0.2033,0011110000,10.29,255
61288,24795,2005/06/09 13:00:00,42.9990,5.1430,17.812,-0.278299,-0.0842575,-0.061775,-0.203307,0011110000,10.41,235
61288,24795,2005/06/09 14:00:00,42.9990,5.1340,18.125,-0.278299,0,0,-0.20331,0011110000,10.29,198
61288,24795,2005/06/09 16:00:00,43.0000,5.1140,17.93,-0.309221,0.0210642,0.015444,-0.225899,0011110000,10.41,124
61288,24795,2005/06/09 17:00:00,43.0020,5.1060,17.773,-0.247377,0.0842589,0.061775,-0.180714,0011110000,10.41,92
61288,24795,2005/06/09 18:00:00,43.0040,5.0980,17.578,-0.247377,0.0842616,0.061775,-0.180709,0011110000,10.29,57
61288,24795,2005/06/09 19:00:00,43.0070,5.0910,17.539,-0.216455,0.126398,0.092662,-0.158114,0011110000,10.41,17
61288,24795,2005/06/09 20:00:00,43.0100,5.0870,17.539,-0.123688,0.126404,0.092662,-0.090346,0011110000,10.41,21
61288,24795,2005/06/09 21:00:00,43.0120,5.0830,17.422,-0.123688,0.0842727,0.061775,-0.090343,0011110000,10.41,61
61288,24795,2005/06/09 22:00:00,43.0140,5.0790,17.383,-0.123688,0.0842754,0.061775,-0.09034,0011110000,10.41,101
61288,24795,2005/06/09 23:00:00,43.0170,5.0760,17.305,-0.0927662,0.126418,0.092662,-0.067752,0011110000,10.29,142
61288,24795,2005/06/10 00:00:00,43.0180,5.0750,17.344,-0.0309221,0.0421408,0.030887,-0.022583,0011110000,10.29,182
61288,24795,2005/06/10 01:00:00,43.0180,5.0740,17.734,-0.0309221,0,0,-0.022583,0011110000,10.41,206
61288,24795,2005/06/10 02:00:00,43.0180,5.0730,17.656,-0.0309221,0,0,-0.022583,0011110000,10.41,172
61288,24795,2005/06/10 03:00:00,43.0160,5.0710,17.539,-0.0618442,-0.084281,-0.061775,-0.045167,0011110000,10.41,148
61288,24795,2005/06/10 04:00:00,43.0140,5.0690,17.188,-0.0618442,-0.0842782,-0.061775,-0.045168,0011110000,10.41,122
61288,24795,2005/06/10 05:00:00,43.0110,5.0650,17.93,-0.123688,-0.126412,-0.092662,-0.09034,0011110000,10.29,89
61288,24795,2005/06/10 06:00:00,43.0080,5.0590,18.086,-0.185532,-0.126406,-0.092662,-0.135517,0011110000,10.41,49
61288,24795,2005/06/10 07:00:00,43.0050,5.0520,17.383,-0.216455,-0.1264,-0.092662,-0.158111,0011110000,10.41,9
61288,24795,2005/06/10 08:00:00,43.0040,5.0440,17.891,-0.247377,-0.0421319,-0.030887,-0.180704,0011110000,10.35,0
61288,24795,2005/06/10 09:00:00,43.0040,5.0370,19.102,-0.216455,0,0,-0.158117,0011110000,10.41,0
61288,24795,2005/06/10 10:00:00,43.0050,5.0290,19.414,-0.247377,0.0421319,0.030887,-0.180704,0011110000,10.29,0
61288,24795,2005/06/10 11:00:00,43.0060,5.0220,19.57,-0.216455,0.0421325,0.030887,-0.158114,0011110000,10.41,0
61288,24795,2005/06/10 12:00:00,43.0080,5.0170,19.18,-0.15461,0.0842672,0.061775,-0.112935,0011110000,10.41,0
61288,24795,2005/06/10 13:00:00,43.0090,5.0130,18.945,-0.123688,0.0421346,0.030887,-0.090346,0011110000,10.29,0
61288,24795,2005/06/10 14:00:00,43.0110,5.0100,18.984,-0.0927662,0.0842713,0.061775,-0.067758,0011110000,10.35,0
61288,24795,2005/06/10 15:00:00,43.0130,5.0080,18.75,-0.0618442,0.0842741,0.061775,-0.045171,0011110000,10.41,0
61288,24795,2005/06/10 16:00:00,43.0150,5.0070,18.633,-0.0309221,0.0842768,0.061775,-0.022585,0011110000,10.41,0
61288,24795,2005/06/10 17:00:00,43.0160,5.0070,18.398,-2.74643e-14,0.0421395,0.030887,0,0011110000,10.41,0
61288,24795,2005/06/10 18:00:00,43.0170,5.0080,18.242,0.0309221,0.0421401,0.030887,0.022584,0011110000,10.41,5
61288,24795,2005/06/10 19:00:00,43.0180,5.0100,18.555,0.0618442,0.0421408,0.030887,0.045166,0011110000,10.41,43
61288,24795,2005/06/10 20:00:00,43.0180,5.0120,19.023,0.0618442,0,0,0.045166,0011110000,10.29,84
61288,24795,2005/06/10 21:01:00,43.0170,5.0140,18.594,0.0608303,-0.04145,-0.030381,0.044426,0011110000,10.41,106
61288,24795,2005/06/10 23:00:00,43.0130,5.0160,18.047,0.0311819,-0.0849864,-0.062294,0.022774,0011110000,10.29,78
61288,24795,2005/06/11 00:01:00,43.0100,5.0140,17.891,-0.0608303,-0.124338,-0.091143,-0.04443,0011110000,10.29,38
61288,24795,2005/06/11 01:00:00,43.0070,5.0120,17.773,-0.0628924,-0.128546,-0.094233,-0.045939,0011110000,10.29,0
61288,24795,2005/06/11 02:00:00,43.0040,5.0070,17.5,-0.15461,-0.126398,-0.092662,-0.112938,0011110000,10.41,0
61288,24795,2005/06/11 03:00:00,43.0010,5.0010,17.461,-0.185532,-0.126391,-0.092662,-0.135533,0011110000,10.41,0
61288,24795,2005/06/11 04:00:00,43.0000,4.9950,17.5,-0.185532,-0.0421291,-0.030887,-0.135537,0011110000,10.41,0
61288,24795,2005/06/11 05:00:00,42.9990,4.9880,17.578,-0.216455,-0.0421284,-0.030887,-0.158129,0011110000,10.41,0
61288,24795,2005/06/11 06:00:00,42.9980,4.9820,17.617,-0.185532,-0.0421277,-0.030887,-0.135541,0011110000,10.41,0
61288,24795,2005/06/11 07:01:00,42.9980,4.9760,17.656,-0.182491,0,0,-0.13332,0011110000,10.29,0
61288,24795,2005/06/11 08:00:00,42.9990,4.9700,17.734,-0.188677,0.0428417,0.031411,-0.137839,0011110000,10.35,0
61288,24795,2005/06/11 09:00:00,43.0010,4.9650,18.008,-0.15461,0.0842575,0.061775,-0.112948,0011110000,10.41,0
61288,24795,2005/06/11 10:01:00,43.0020,4.9630,18.75,-0.0608303,0.0414391,0.030381,-0.044438,0011110000,10.29,29
61288,24795,2005/06/11 11:00:00,43.0030,4.9620,19.062,-0.0314462,0.0428445,0.031411,-0.022972,0011110000,10.41,69
61288,24795,2005/06/11 12:00:00,43.0060,4.9600,19.648,-0.0618442,0.126396,0.092662,-0.045176,0011110000,10.41,109
61288,24795,2005/06/11 13:00:00,43.0090,4.9600,19.766,0,0.126402,0.092662,0,0011110000,10.41,149
61288,24795,2005/06/11 14:01:00,43.0120,4.9630,19.883,0.0912455,0.124336,0.091143,0.066647,0011110000,10.29,190
61288,24795,2005/06/11 15:01:00,43.0130,4.9660,19.883,0.0927662,0.0421374,0.030887,0.067755,0011110000,10.29,230